{"data":{"norad_id":59212,"intl_designator":"2024-046M","name":"STARLINK-31492","alt_names":[],"object_type":"PAYLOAD","status":"ACTIVE","operator":null,"country":"US","launch_date":"2024-03-11","launch_site_code":"AFWTR","launch_vehicle":null,"mission":null,"orbit_class":"UNKNOWN","rcs_meters":null,"size_class":null,"mass_kg":null,"dimensions":null,"purposes":["comms"],"wikipedia_slug":null,"has_3d_model":false,"image_url":null,"decayed_at":null,"tle_current":{"epoch":"2026-09-20T21:46:21.444960Z","epoch_age_seconds":123678,"freshness":"FRESH","line1":"1 59212U 24046M   26263.90719265  .00000784  00000+0  34344-4 0  9993","line2":"2 59212  53.1599 327.4784 0001225  84.7369 275.3773 15.34393300142940","mean_motion":15.343933,"eccentricity":0.0001225,"inclination_deg":53.1599,"raan_deg":327.4784,"arg_perigee_deg":84.7369,"mean_anomaly_deg":275.3773,"bstar":3.4344e-5,"rev_number":14294,"period_min":93.848167871953,"perigee_km":461.88514872265,"apogee_km":463.5611594604,"semimajor_km":6840.8601540915,"source":"CELESTRAK","updated_at":"2026-09-21T09:00:34.070525Z"}}}